Location: Newark
(48.1281°N, 2.1556°W)
Time: 14:04:05
(UTC+00:00)

Envisat - Pass Details

Date: 21 November 2019
Orbit: 764 x 766 km, 98.1° (Epoch: 06 December)

Event Time Altitude Azimuth Distance (km) Brightness Sun altitude
Rises 17:41:59 0° 156° (SSE) 3,221 6.1 -12.7°
Reaches altitude 10° 17:44:17 10° 154° (SSE) 2,298 5.4 -13.1°
Maximum altitude 17:49:18 67° 72° (ENE) 831 2.9 -13.9°
Drops below altitude 10° 17:54:21 10° 351° (N) 2,314 5.4 -14.7°
Sets 17:56:41 0° 349° (N) 3,244 6.2 -15.1°
